| time (UTC) | temp C | wind direction | speed KPH | gust KPH | rain 1hr cm | rain 24hr cm | rain mn cm | humidity % | barometer mb |
| 20260510011525 | 24 | 228 | 3.2 | 12.9 | 0.00 | 0.00 | 0.00 | 49 | 1027.5 |
| 20260510010022 | 24 | 240 | 3.2 | 12.9 | 0.00 | 0.00 | 0.00 | 49 | 1027.6 |
| 20260510004519 | 23 | 289 | 3.2 | 11.3 | 0.00 | 0.00 | 0.00 | 50 | 1027.6 |
| 20260510003016 | 22 | 313 | 6.4 | 14.5 | 0.00 | 0.00 | 0.00 | 52 | 1027.7 |
| 20260510001513 | 21 | 293 | 9.7 | 14.5 | 0.00 | 0.00 | 0.00 | 54 | 1027.5 |
| 20260510000015 | 21 | 295 | 6.4 | 16.1 | 0.00 | 0.00 | 0.00 | 56 | 1027.4 |
| 20260509234504 | 20 | 269 | 6.4 | 17.7 | 0.00 | 0.00 | 0.00 | 59 | 1027.4 |
| 20260509233001 | 20 | 286 | 3.2 | 14.5 | 0.00 | 0.00 | 0.00 | 60 | 1027.3 |
| 20260509231558 | 18 | 243 | 9.7 | 19.3 | 0.00 | 0.00 | 0.00 | 63 | 1027.4 |
| 20260509230053 | 18 | 291 | 11.3 | 17.7 | 0.00 | 0.00 | 0.00 | 65 | 1027.3 |
| 20260509224557 | 17 | 318 | 9.7 | 20.9 | 0.00 | 0.00 | 0.00 | 67 | 1027.1 |
| 20260509223047 | 16 | 303 | 8.0 | 20.9 | 0.00 | 0.00 | 0.00 | 70 | 1027.1 |
| 20260509221554 | 15 | 297 | 11.3 | 20.9 | 0.00 | 0.00 | 0.00 | 75 | 1027.0 |
| 20260509220037 | 13 | 320 | 11.3 | 19.3 | 0.00 | 0.00 | 0.00 | 79 | 1027.0 |
| 20260509214533 | 12 | 310 | 11.3 | 19.3 | 0.00 | 0.00 | 0.00 | 81 | 1026.9 |
| 20260509213032 | 12 | 293 | 9.7 | 22.5 | 0.00 | 0.00 | 0.00 | 82 | 1026.7 |
| 20260509211530 | 12 | 307 | 9.7 | 20.9 | 0.00 | 0.00 | 0.00 | 82 | 1026.6 |
| 20260509210032 | 12 | 293 | 11.3 | 24.1 | 0.00 | 0.00 | 0.00 | 82 | 1026.1 |
| 20260509204524 | 12 | 304 | 14.5 | 22.5 | 0.00 | 0.00 | 0.00 | 82 | 1026.1 |
| 20260509203020 | 12 | 306 | 12.9 | 20.9 | 0.00 | 0.00 | 0.00 | 81 | 1025.8 |
| 20260509201519 | 12 | 326 | 11.3 | 24.1 | 0.00 | 0.00 | 0.00 | 81 | 1025.6 |
| 20260509200016 | 12 | 291 | 11.3 | 20.9 | 0.00 | 0.00 | 0.00 | 80 | 1025.5 |
| 20260509194513 | 13 | 303 | 11.3 | 22.5 | 0.00 | 0.00 | 0.00 | 79 | 1025.2 |
| 20260509193014 | 13 | 301 | 12.9 | 24.1 | 0.00 | 0.00 | 0.00 | 78 | 1025.1 |
| 20260509191609 | 13 | 290 | 11.3 | 20.9 | 0.00 | 0.00 | 0.00 | 78 | 1024.9 |
| 20260509190007 | 13 | 286 | 11.3 | 20.9 | 0.00 | 0.00 | 0.00 | 78 | 1024.8 |
| 20260509184505 | 13 | 330 | 12.9 | 22.5 | 0.00 | 0.00 | 0.00 | 78 | 1024.8 |
| 20260509183003 | 13 | 300 | 12.9 | 19.3 | 0.00 | 0.00 | 0.00 | 78 | 1024.7 |
| 20260509181501 | 13 | 300 | 8.0 | 17.7 | 0.00 | 0.00 | 0.00 | 79 | 1024.6 |
| 20260509174556 | 13 | 292 | 8.0 | 17.7 | 0.00 | 0.00 | 0.00 | 80 | 1024.7 |
| 20260509173053 | 13 | 307 | 9.7 | 14.5 | 0.00 | 0.00 | 0.00 | 79 | 1024.5 |
| 20260509171554 | 13 | 299 | 8.0 | 14.5 | 0.00 | 0.00 | 0.00 | 79 | 1024.6 |
| 20260509170054 | 13 | 313 | 8.0 | 16.1 | 0.00 | 0.00 | 0.00 | 79 | 1024.6 |
| 20260509164551 | 13 | 318 | 8.0 | 16.1 | 0.00 | 0.00 | 0.00 | 80 | 1024.5 |
| 20260509163045 | 13 | 289 | 6.4 | 12.9 | 0.00 | 0.00 | 0.00 | 80 | 1024.5 |
| 20260509161552 | 13 | 299 | 4.8 | 16.1 | 0.00 | 0.00 | 0.00 | 79 | 1024.5 |
| 20260509160040 | 13 | 297 | 6.4 | 14.5 | 0.00 | 0.00 | 0.00 | 79 | 1024.6 |
| 20260509154538 | 13 | 287 | 6.4 | 14.5 | 0.00 | 0.00 | 0.00 | 79 | 1024.6 |
| 20260509153036 | 13 | 291 | 6.4 | 16.1 | 0.00 | 0.00 | 0.00 | 79 | 1024.7 |
| 20260509151537 | 13 | 289 | 6.4 | 14.5 | 0.00 | 0.00 | 0.00 | 79 | 1024.7 |
| 20260509150036 | 13 | 300 | 4.8 | 14.5 | 0.00 | 0.00 | 0.00 | 79 | 1024.6 |
| 20260509144534 | 13 | 282 | 6.4 | 12.9 | 0.00 | 0.00 | 0.00 | 79 | 1024.6 |
| 20260509143029 | 13 | 303 | 6.4 | 16.1 | 0.00 | 0.00 | 0.00 | 79 | 1024.8 |
| 20260509141526 | 13 | 302 | 6.4 | 14.5 | 0.00 | 0.00 | 0.00 | 79 | 1024.6 |
| 20260509140023 | 13 | 310 | 6.4 | 12.9 | 0.00 | 0.00 | 0.00 | 79 | 1024.7 |
| 20260509134523 | 13 | 305 | 8.0 | 14.5 | 0.00 | 0.00 | 0.00 | 79 | 1024.6 |
| 20260509133022 | 13 | 293 | 6.4 | 12.9 | 0.00 | 0.00 | 0.00 | 79 | 1024.6 |
| 20260509131527 | 13 | 302 | 4.8 | 11.3 | 0.00 | 0.00 | 0.00 | 79 | 1024.7 |
| 20260509130021 | 13 | 309 | 4.8 | 12.9 | 0.00 | 0.00 | 0.00 | 79 | 1024.7 |
| 20260509124523 | 14 | 291 | 4.8 | 11.3 | 0.00 | 0.00 | 0.00 | 78 | 1024.8 |
| 20260509123020 | 14 | 297 | 4.8 | 11.3 | 0.00 | 0.00 | 0.00 | 78 | 1024.7 |
| 20260509121526 | 14 | 293 | 4.8 | 11.3 | 0.00 | 0.00 | 0.00 | 78 | 1024.9 |
| 20260509120022 | 14 | 287 | 3.2 | 8.0 | 0.00 | 0.00 | 0.00 | 78 | 1024.8 |
| 20260509114525 | 14 | 293 | 3.2 | 6.4 | 0.00 | 0.00 | 0.00 | 79 | 1024.8 |
| 20260509113018 | 13 | 286 | 3.2 | 6.4 | 0.00 | 0.00 | 0.00 | 81 | 1024.5 |
| 20260509111517 | 13 | 289 | 3.2 | 6.4 | 0.00 | 0.00 | 0.00 | 81 | 1024.7 |
| 20260509110017 | 13 | 282 | 1.6 | 4.8 | 0.00 | 0.00 | 0.00 | 80 | 1024.7 |
| 20260509104517 | 13 | 278 | 3.2 | 6.4 | 0.00 | 0.00 | 0.00 | 81 | 1024.6 |
| 20260509103014 | 13 | 259 | 3.2 | 6.4 | 0.00 | 0.00 | 0.00 | 80 | 1024.5 |
| 20260509101517 | 13 | 222 | 1.6 | 4.8 | 0.00 | 0.00 | 0.00 | 79 | 1024.4 |
| 20260509100020 | 13 | 222 | 0.0 | 4.8 | 0.00 | 0.00 | 0.00 | 77 | 1024.4 |
| 20260509094515 | 14 | 222 | 1.6 | 4.8 | 0.00 | 0.00 | 0.00 | 76 | 1024.3 |
| 20260509093010 | 15 | 220 | 0.0 | 4.8 | 0.00 | 0.00 | 0.00 | 75 | 1024.3 |
| 20260509091517 | 15 | 220 | 0.0 | 4.8 | 0.00 | 0.00 | 0.00 | 75 | 1024.1 |
| 20260509090007 | 15 | 209 | 0.0 | 8.0 | 0.00 | 0.00 | 0.00 | 75 | 1023.9 |
| 20260509084511 | 15 | 182 | 3.2 | 8.0 | 0.00 | 0.00 | 0.00 | 74 | 1023.8 |
| 20260509083004 | 15 | 207 | 1.6 | 6.4 | 0.00 | 0.00 | 0.00 | 73 | 1023.7 |
| 20260509081502 | 16 | 195 | 3.2 | 11.3 | 0.00 | 0.00 | 0.00 | 73 | 1023.6 |
| 20260509080001 | 16 | 198 | 1.6 | 6.4 | 0.00 | 0.00 | 0.00 | 71 | 1023.4 |
| 20260509074607 | 16 | 197 | 1.6 | 11.3 | 0.00 | 0.00 | 0.00 | 71 | 1023.2 |
| 20260509073103 | 16 | 203 | 1.6 | 9.7 | 0.00 | 0.00 | 0.00 | 70 | 1023.1 |
| 20260509071608 | 17 | 203 | 1.6 | 11.3 | 0.00 | 0.00 | 0.00 | 67 | 1022.8 |
| 20260509070100 | 17 | 193 | 4.8 | 9.7 | 0.00 | 0.00 | 0.00 | 65 | 1022.8 |
| 20260509064617 | 18 | 185 | 3.2 | 9.7 | 0.00 | 0.00 | 0.00 | 62 | 1022.5 |
| 20260509063058 | 19 | 188 | 6.4 | 11.3 | 0.00 | 0.00 | 0.00 | 58 | 1022.4 |
| 20260509061622 | 22 | 187 | 4.8 | 11.3 | 0.00 | 0.00 | 0.00 | 49 | 1022.2 |
| 20260509060057 | 22 | 178 | 4.8 | 9.7 | 0.00 | 0.00 | 0.00 | 49 | 1022.0 |
| 20260509054556 | 23 | 190 | 4.8 | 12.9 | 0.00 | 0.00 | 0.00 | 48 | 1022.0 |
| 20260509053054 | 23 | 167 | 3.2 | 11.3 | 0.00 | 0.00 | 0.00 | 50 | 1021.9 |
| 20260509051552 | 23 | 189 | 4.8 | 14.5 | 0.00 | 0.00 | 0.00 | 49 | 1022.0 |
| 20260509050050 | 23 | 164 | 6.4 | 16.1 | 0.00 | 0.00 | 0.00 | 48 | 1021.8 |
| 20260509044549 | 23 | 172 | 4.8 | 16.1 | 0.00 | 0.00 | 0.00 | 47 | 1021.8 |
| 20260509043056 | 23 | 147 | 8.0 | 14.5 | 0.00 | 0.00 | 0.00 | 47 | 1021.8 |
| 20260509041548 | 23 | 184 | 6.4 | 19.3 | 0.00 | 0.00 | 0.00 | 49 | 1021.9 |
| 20260509040047 | 23 | 204 | 6.4 | 16.1 | 0.00 | 0.00 | 0.00 | 47 | 1021.8 |
| 20260509034553 | 23 | 194 | 4.8 | 16.1 | 0.00 | 0.00 | 0.00 | 47 | 1021.7 |
| 20260509033051 | 22 | 155 | 8.0 | 17.7 | 0.00 | 0.00 | 0.00 | 47 | 1021.7 |
| 20260509031543 | 23 | 178 | 8.0 | 14.5 | 0.00 | 0.00 | 0.00 | 46 | 1022.0 |
| 20260509030043 | 23 | 193 | 9.7 | 24.1 | 0.00 | 0.00 | 0.00 | 47 | 1022.2 |
| 20260509024542 | 23 | 183 | 6.4 | 14.5 | 0.00 | 0.00 | 0.00 | 46 | 1022.4 |
| 20260509023039 | 23 | 209 | 6.4 | 17.7 | 0.00 | 0.00 | 0.00 | 46 | 1022.6 |
| 20260509021540 | 24 | 196 | 6.4 | 16.1 | 0.00 | 0.00 | 0.00 | 46 | 1022.7 |
| 20260509020036 | 25 | 207 | 6.4 | 14.5 | 0.00 | 0.00 | 0.00 | 43 | 1022.8 |
| 20260509014535 | 25 | 229 | 3.2 | 14.5 | 0.00 | 0.00 | 0.00 | 40 | 1023.0 |
| 20260509013033 | 24 | 201 | 6.4 | 12.9 | 0.00 | 0.00 | 0.00 | 42 | 1023.1 |